www.pogodaiklimat.ru

Погода и климат >> Архив погоды >> Аргентина >> Las Flores


ПОГОДА в Las Flores

  • Прогноз погоды в Las Flores
  • Монитор погоды в Las Flores
  • Климат города

АРХИВ ПОГОДЫ в Las Flores

Время (UTC), дата Ветер
(напр.,м/с)
 
Видим.   Явления Облачность Т
(С)
Тd
(С)
f
(%)
Тe
(С)
Тes
(С)
Комфортность P
(гПа)
Po
(гПа)
Тmin
(С)
Tmax
(С)
R
(мм)
R24
(мм)
S
(см)
09 15.10 В 1 15 км ясно +12.2 +7.1 71 +12 +12 1020.6 1016.4
12 15.10 З 1 15 км ясно +17.6 +9.7 60 +19 +26 1020.9 1016.5 +10.3 +18.1
15 15.10 З 1 15 км ясно +22.3 +9.2 43 +24 +44 комфорт 1021.3 1017.0
18 15.10 З 2 15 км ясно +24.2 +8.8 37 +25 +39 комфорт 1018.4 1014.1
21 15.10 З 2 15 км ясно +23.7 +8.5 38 +24 +26 комфорт 1016.7 1012.4
00 16.10 З 1 15 км ясно +19.1 +11.1 60 +21 +21 комфорт 1016.8 1012.5 +17.5 +26.0
09 16.10 штиль 0 15 км ясно +12.5 +9.6 82 +12 +12 1016.8 1012.5
12 16.10 СЗ 2 15 км ясно +19.4 +11.7 61 +21 +27 комфорт 1016.4 1012.1 +11.9 +19.4
15 16.10 СЗ 2 15 км 5/3 750 м
[Cu hum Ci]
+23.2 +12.3 50 +26 +37 жарко 1013.5 1009.3
18 16.10 СЗ 7 15 км 8/4 750 м
[Cu hum Ci]
+24.0 +9.5 40 +25 +27 комфорт 1011.2 1007.0
21 16.10 СЗ 2 15 км 8/0
[Cs]
+22.4 +11.4 50 +25 +26 комфорт 1009.8 1005.6
00 17.10 штиль 0 15 км 10/10 750 м
[Frnb]
+20.2 +13.1 64 +22 +22 комфорт 1009.5 1005.3 +19.4 +25.8
09 17.10 СЗ 1 15 км 10/10 750 м
[Sc]
+17.4 +14.1 81 +18 +18 1011.1 1006.9
12 17.10 З 1 15 км 10/10 750 м
[Sc]
+20.0 +15.5 75 +23 +23 комфорт 1011.8 1007.6 +16.4 +20.2
15 17.10 З 1 15 км 10/10 750 м
[Sc]
+23.0 +15.2 61 +27 +27 душно 1013.1 1008.9
18 17.10 С 2 15 км 6/0
[Ci]
+26.4 +14.1 47 +29 +41 жарко 1010.3 1006.1
21 17.10 С 1 15 км ясно +26.2 +14.3 48 +29 +31 жарко 1008.6 1004.5
00 18.10 штиль 0 15 км ясно +20.1 +16.1 78 +23 +23 комфорт 1009.4 1005.2 +20.0 +27.7
09 18.10 штиль 0 <100 м туман ?/? +16.5 +15.3 93 +16 +16 1009.5 1005.3
12 18.10 штиль 0 <100 м туман ?/? +18.4 +16.2 87 +19 +19 1008.1 1003.8 +16.3 +20.1
15 18.10 В 4 15 км {туман} 10/10 750 м
[Sc]
+22.2 +18.9 82 +28 +28 душно 1007.5 1003.3
18 18.10 В 5 15 км 6/6 750 м
[Cu hum]
+25.0 +17.0 61 +29 +32 душно 1004.4 1000.2
21 18.10 В 1 15 км гроза без осадков 10/10 750 м
[Frnb]
+23.8 +17.4 67 +28 +28 душно 1001.8 997.6
09 19.10 В 4 15 км 3/0
[Ac trans]
+8.4 +5.7 83 +5 +5 1018.1 1009.4
12 19.10 Ю 1 15 км ясно +11.4 +3.9 60 +11 +19 1016.6 1012.1 +7.0 +18.5 20
15 19.10 Ю 3 15 км ясно +14.4 -1.0 35 +14 +28 опасность
простуды
1019.3 1014.8
18 19.10 штиль 0 15 км 3/1 750 м
[Cu hum]
+18.1 -1.0 27 +18 +34 опасность
простуды
1018.9 1014.4
21 19.10 З 1 15 км 3/0
[Ci]
+18.0 -2.4 25 +19 +22 1016.9 1012.4
00 20.10 З 1 15 км ясно +13.5 +5.5 58 +14 +14 1016.2 1011.7 +8.4 +19.6
09 20.10 штиль 0 15 км 9/0
[Ac trans]
+12.0 +9.5 85 +11 +11 1014.6 1010.1
12 20.10 З 5 15 км 8/0
[Ac trans]
+14.3 +7.9 65 +13 +14 1013.6 1009.0 +11.4 +14.3
15 20.10 З 5 15 км 9/0
[Ac trans]
+18.3 +10.9 62 +18 +22 1011.3 1006.8
18 20.10 З 3 15 км 9/0
[Ac trans]
+21.0 +11.6 55 +24 +29 комфорт 1009.4 1004.9
21 20.10 В 1 15 км 10/10 750 м
[Frnb]
+20.0 +14.2 69 +23 +23 комфорт 1008.4 1003.8
00 21.10 штиль 0 15 км 10/10 750 м
[Frnb]
+18.2 +15.6 85 +18 +18 1008.1 1003.6 +14.3 +21.8
09 21.10 В 3 15 км 4/0
[Ci sp]
+9.5 +6.9 84 +7 +7 1015.3 1010.8
12 21.10 Ю 10 15 км ясно +12.8 +7.5 70 +10 +10 1017.4 1012.9 +8.9 +18.1
15 21.10 Ю 10 15 км 5/5 750 м
[Cu hum]
+16.5 +7.9 57 +15 +15 1019.2 1014.6
18 21.10 Ю 6 15 км 5/5 750 м
[Cu hum]
+18.3 +5.5 43 +18 +21 1019.7 1015.2
21 21.10 Ю 8 15 км {дождь} 10/10 750 м
[Frnb]
+12.7 +7.4 70 +10 +10 1020.0 1015.4

 

Местоположение метеостанции Las Flores (Аргентина): широта -36.07 долгота -59.10 высота над уровнем моря 38 м.

В архиве по умолчанию представлена погода в Las Flores за последнюю неделю. Архивные данные за месяц целиком и за предыдущие месяцы, начиная с января 2011 года, Вы можете получить, выбрав интересующий диапазон дат из раскрывающегося списка и нажав кнопку "Ввод!".

Внимание! Время в таблицах - всемирное. Для получения местного времени необходимо прибавить поправку, которая в Las Flores равна -3 ч.

Смотрите также архив погоды в соседних городах и на ближайших метеорологических станциях:

Погода в Azul (Аргентина) (110 км)
Погода в Dolores (Аргентина) (127 км)
Погода в Tandil (Аргентина) (130 км)
Погода в Ezeiza (Аргентина) (149 км)
Погода в La Plata (Аргентина) (164 км)
Погода в Buenos Aires (Аргентина) (175 км)
Погода в Bolivar (Аргентина) (178 км)
Погода в Buenos Aires Aeropuerto (Аргентина) (179 км)
Погода в Colonia (Уругвай) (214 км)
Погода в Junin (Аргентина) (236 км)

Пояснения к столбцам:

Ветер - указаны скорость ветра в м/с - средняя за 10 мин, порывы в срок и между сроками (в фигурных скобках) и направление, откуда дует ветер: С - северный, СВ - северо-восточный, В - восточный, ЮВ - юго-восточный, Ю - южный, ЮЗ - юго-западный, З - западный, СЗ - северо-западный.
Видимость - горизонтальная дальность видимости в метрах или километрах. При видимости от 1 до 10 км при отсутствии осадков обычно наблюдается дымка, при ухудшении видимости до 1 км и менее - туман. В сухую погоду видимость может ухудшаться дымом, пылью или мглою.
Явления - указаны атмосферные явления, наблюдавшиеся в срок или в последний час перед сроком; фигурными скобками обозначены явления, наблюдавшиеся между сроками (за 1-3 часа до срока); квадратными скобками обозначены град или гололедные отложения с указанием их диаметра в мм.
Облачность - указаны через наклонную черту общая и нижняя облачность в баллах и высота нижней границы облаков в метрах; квадратными скобками обозначены формы облаков: Ci - перистые, Cs - перисто-слоистые, Cc - перисто-кучевые, Ac - высококучевые, As - высокослоистые, Sc - слоисто-кучевые, Ns - слоисто-дождевые, Cu - кучевые, Cb - кучево-дождевые. Подробнее классификацию облаков см. в Атласе облаков (PDF).
T - Температура воздуха - температура, измеренная на высоте 2 м над землей.
Td - Температура точки росы - температура, при понижении до которой содержащийся в воздухе водяной пар достигнет насыщения.
f - Относительная влажность воздуха - влажноcть воздуха, измеренная на высоте 2 м над землей.
Te - Эффективная температура - температура, которую ощущает одетый по сезону человек в тени. Характеристика душности погоды. При расчете учитывается влияние влажности воздуха и скорости ветра на теплоощущения человека.
Tes - Эффективная температура на солнце - температура, которую ощущает человек, с поправкой на солнечный нагрев. Характеристика знойности погоды. Зависит от высоты солнца над горизонтом, облачности и скорости ветра. Ночью, в пасмурную погоду, а также при ветре 12 м/с и более поправка равна нулю.
P - Атмосферное давление - приведенное к уровню моря атмосферное давление.
Po - Атмосферное давление - измеренное на уровне метеостанции атмосферное давление.
Tmin - Минимальная температура - минимум температуры воздуха на высоте 2 м над землей.
Tmax - Максимальная температура - максимум температуры воздуха на высоте 2 м над землей.
R - Количество осадков - Количество выпавших осадков за период времени, мм. При наведении курсора мыши на число - период времени, за который выпало указанное количество осадков.
R24 - Количество осадков - Количество выпавших осадков за 24 часа, мм.
S - Снежный покров - Высота снежного покрова, см. При наведении курсора мыши на число - состояние снежного покрова и степень покрытия местности в баллах.